FW0475 Weather Reports


Display with metric or nautical units.
time (UTC)temp
F
wind
direction
speed
MPH
gust
MPH
rain 1hr
in
rain 24hr
in
rain mn
in
humidity
%
barometer
mb
20260905101825 70 73 1.0 2.0 0.00 0.26 0.00 84 1015.6
20260905101335 70 73 1.0 2.0 0.00 0.26 0.00 84 1015.6
20260905100836 70 71 1.0 2.0 0.00 0.31 0.00 84 1015.6
20260905100317 70 75 1.0 2.0 0.00 0.31 0.00 84 1015.6
20260905095825 70 74 1.0 2.0 0.00 0.31 0.00 84 1015.5
20260905095327 70 69 1.0 2.0 0.00 0.31 0.00 84 1015.5
20260905094836 70 67 1.0 2.0 0.00 0.31 0.00 84 1015.5
20260905094319 70 70 1.0 2.0 0.00 0.31 0.00 84 1015.5
20260905093821 70 72 0.0 3.0 0.00 0.31 0.00 85 1015.6
20260905093323 70 73 1.0 3.0 0.00 0.31 0.00 85 1015.5
20260905092832 70 72 1.0 2.0 0.00 0.31 0.00 85 1015.4
20260905092315 70 67 1.0 2.0 0.00 0.31 0.00 85 1015.3
20260905091817 70 70 1.0 2.0 0.00 0.31 0.00 85 1015.3
20260905091347 71 76 0.0 2.0 0.00 0.31 0.00 85 1015.1
20260905090827 70 76 1.0 2.0 0.00 0.32 0.00 85 1015.1
20260905090336 70 72 1.0 2.0 0.00 0.32 0.00 85 1015.2
20260905085818 71 69 1.0 4.0 0.00 0.32 0.00 85 1015.1
20260905085347 70 69 1.0 4.0 0.00 0.32 0.00 85 1015.1
20260905084848 71 71 1.0 4.0 0.00 0.32 0.00 85 1015.0
20260905084337 71 67 1.0 4.0 0.00 0.32 0.00 84 1015.0
20260905083817 71 68 1.0 4.0 0.00 0.32 0.00 84 1014.9
20260905083319 71 74 1.0 3.0 0.00 0.32 0.00 84 1014.9
20260905082828 71 77 1.0 3.0 0.00 0.32 0.00 84 1014.8
20260905082329 71 75 1.0 3.0 0.00 0.32 0.00 85 1014.8
20260905081831 71 76 2.0 3.0 0.00 0.32 0.00 85 1014.8
20260905081314 71 74 1.0 3.0 0.00 0.32 0.00 85 1014.8
20260905080822 71 75 1.0 59.0 0.00 0.32 0.00 85 1014.8
20260905080323 71 71 1.0 59.0 0.00 0.32 0.00 84 1014.8
20260905075835 72 71 1.0 3.0 0.00 0.32 0.00 84 1014.9
20260905075315 72 65 0.0 4.0 0.00 0.32 0.00 84 1015.1
20260905074843 72 71 2.0 4.0 0.00 0.32 0.00 84 1015.1
20260905074325 72 65 1.0 3.0 0.00 0.32 0.00 84 1015.3
20260905073823 72 67 1.0 135.0 0.00 0.32 0.00 84 1015.4
20260905073332 72 63 0.0 135.0 0.00 0.32 0.00 84 1015.4
20260905072812 72 51 134.0 135.0 0.00 0.32 0.00 84 1015.5
20260905072314 72 53 3.0 104.0 0.00 0.32 0.00 84 1015.5
20260905071823 72 38 0.0 3.0 0.00 0.32 0.00 84 1015.6
20260905071326 72 35 1.0 3.0 0.00 0.32 0.00 84 1015.5
20260905070827 72 36 1.0 2.0 0.00 0.32 0.00 84 1015.4
20260905070336 72 30 0.0 3.0 0.00 0.32 0.00 84 1015.4
20260905065817 72 30 1.0 3.0 0.00 0.32 0.00 84 1015.4
20260905065346 73 351 0.0 2.0 0.00 0.32 0.00 84 1015.4
20260905064827 73 344 1.0 2.0 0.00 0.32 0.00 84 1015.4
20260905064329 73 321 0.0 0.0 0.00 0.32 0.00 84 1015.6
20260905063837 72 360 0.0 1.0 0.00 0.32 0.00 84 1015.4
20260905063319 72 320 0.0 2.0 0.00 0.32 0.00 84 1015.4
20260905062847 72 360 0.0 2.0 0.00 0.32 0.00 84 1015.4
20260905062328 72 321 0.0 1.0 0.00 0.32 0.00 84 1015.3
20260905061830 72 324 0.0 2.0 0.00 0.32 0.00 84 1015.2
20260905061313 72 323 0.0 2.0 0.00 0.32 0.00 84 1015.2
20260905060821 72 40 0.0 1.0 0.00 0.32 0.00 84 1015.3
20260905060323 72 40 0.0 2.0 0.00 0.32 0.00 84 1015.4
20260905055852 72 49 0.0 2.0 0.00 0.32 0.00 84 1015.2
20260905055333 72 49 0.0 2.0 0.00 0.32 0.00 84 1015.0
20260905054821 73 78 0.0 1.0 0.00 0.32 0.00 84 1014.9
20260905054324 73 78 0.0 2.0 0.00 0.32 0.00 84 1015.1
20260905053834 73 79 0.0 2.0 0.00 0.32 0.00 84 1015.1
20260905053313 73 79 0.0 2.0 0.00 0.32 0.00 84 1015.2
20260905052815 73 79 1.0 2.0 0.00 0.32 0.00 84 1015.2
20260905052324 73 77 0.0 1.0 0.00 0.32 0.00 84 1015.3
20260905051826 73 86 0.0 1.0 0.00 0.32 0.00 84 1015.1
20260905051356 73 86 0.0 1.0 0.00 0.32 0.00 84 1014.9
20260905050816 73 86 0.0 1.0 0.00 0.32 0.00 84 1015.0
20260905050318 73 86 0.0 1.0 0.00 0.32 0.00 84 1014.9
20260905045827 73 84 0.0 1.0 0.00 0.32 0.00 84 1015.0
20260905045329 73 84 1.0 1.0 0.00 0.32 0.00 84 1015.0
20260905044830 73 86 0.0 1.0 0.00 0.32 0.00 84 1014.9
20260905044314 73 84 0.0 2.0 0.00 0.32 0.00 84 1014.9
20260905043823 73 86 1.0 2.0 0.00 0.32 0.00 84 1015.0
20260905043350 73 86 0.0 0.0 0.00 0.32 0.00 84 1015.2
20260905042831 73 84 0.0 1.0 0.00 0.32 0.00 84 1015.3
20260905042313 73 87 0.0 1.0 0.00 0.32 0.00 84 1015.2
20260905041843 73 86 0.0 1.0 0.00 0.32 0.00 84 1015.2
20260905041344 73 86 0.0 1.0 0.00 0.32 0.00 84 1015.0
20260905040833 73 86 0.0 1.0 0.00 0.32 0.32 84 1015.0
20260905040314 73 86 0.0 1.0 0.00 0.32 0.32 84 1014.9
20260905035844 73 84 0.0 1.0 0.00 0.32 0.32 84 1015.1
20260905035326 73 84 0.0 1.0 0.00 0.32 0.32 84 1015.2
20260905034835 73 84 1.0 1.0 0.00 0.32 0.32 84 1015.3
20260905034337 73 85 0.0 1.0 0.00 0.32 0.32 84 1015.3
20260905033841 73 84 0.0 1.0 0.00 0.32 0.32 84 1015.4
20260905033322 73 84 0.0 1.0 0.00 0.32 0.32 84 1015.5
20260905032851 73 85 0.0 1.0 0.00 0.32 0.32 84 1015.6
20260905032312 73 86 0.0 1.0 0.00 0.32 0.32 84 1015.6
20260905031821 73 86 0.0 1.0 0.00 0.32 0.32 84 1015.6
20260905031323 73 85 0.0 1.0 0.00 0.32 0.32 84 1015.6
20260905030831 73 84 0.0 2.0 0.00 0.32 0.32 84 1015.6
20260905030313 73 86 0.0 3.0 0.00 0.32 0.32 84 1015.6
20260905025815 73 85 1.0 3.0 0.00 0.32 0.32 84 1015.6
20260905025314 73 96 0.0 1.0 0.00 0.32 0.32 84 1015.6
20260905024844 73 95 0.0 1.0 0.00 0.32 0.32 84 1015.6
20260905024332 73 96 0.0 1.0 0.00 0.32 0.32 84 1015.8
20260905023813 73 95 0.0 1.0 0.00 0.32 0.32 84 1015.8
20260905023315 73 97 0.0 2.0 0.00 0.32 0.32 84 1016.0
20260905022817 73 98 1.0 2.0 0.00 0.32 0.32 84 1015.9
20260905022323 73 95 0.0 1.0 0.00 0.32 0.32 84 1016.0
20260905021825 73 96 0.0 1.0 0.00 0.32 0.32 84 1016.1
20260905021334 73 96 0.0 1.0 0.00 0.32 0.32 84 1016.1
20260905020819 73 95 0.0 1.0 0.00 0.32 0.32 84 1016.1
20260905020338 73 95 0.0 1.0 0.00 0.32 0.32 84 1015.9
20260905015846 73 95 0.0 1.0 0.00 0.32 0.32 84 1015.9
20260905015326 73 95 0.0 2.0 0.00 0.32 0.32 84 1016.1
20260905014835 73 98 1.0 2.0 0.00 0.32 0.32 84 1015.9
20260905014319 73 95 0.0 2.0 0.00 0.32 0.32 84 1016.0
20260905013820 73 95 1.0 1.0 0.00 0.32 0.32 84 1015.9
20260905013329 73 96 0.0 2.0 0.00 0.32 0.32 84 1016.0
20260905012852 73 97 1.0 2.0 0.00 0.32 0.32 84 1015.9
20260905012312 74 96 0.0 2.0 0.00 0.32 0.32 84 1015.8
20260905011842 74 95 0.0 1.0 0.00 0.32 0.32 84 1015.9
20260905011330 74 95 0.0 1.0 0.00 0.32 0.32 84 1015.8
20260905010831 74 95 0.0 1.0 0.00 0.32 0.32 84 1015.6
20260905010313 74 96 0.0 1.0 0.00 0.32 0.32 84 1015.4
20260905005816 74 95 0.0 1.0 0.00 0.32 0.32 84 1015.4
20260905005324 74 96 0.0 1.0 0.00 0.32 0.32 84 1015.4
20260905004826 74 97 0.0 1.0 0.00 0.32 0.32 84 1015.5
20260905004313 74 96 0.0 1.0 0.00 0.32 0.32 84 1015.4
20260905003821 74 96 0.0 1.0 0.00 0.32 0.32 84 1015.3
20260905003323 74 95 0.0 1.0 0.00 0.32 0.32 83 1015.3
20260905002832 74 95 0.0 1.0 0.00 0.32 0.32 84 1015.3
20260905002335 74 96 0.0 1.0 0.00 0.32 0.32 83 1015.2
20260905001817 74 96 0.0 1.0 0.00 0.32 0.32 83 1015.2
20260905001342 74 96 0.0 2.0 0.00 0.32 0.32 84 1015.1
20260905000822 74 96 1.0 2.0 0.00 0.32 0.32 83 1015.3
20260905000315 74 96 0.0 2.0 0.00 0.32 0.32 83 1015.2
20260904235816 74 96 1.0 2.0 0.00 0.32 0.32 83 1015.3
20260904235342 74 96 1.0 2.0 0.00 0.32 0.32 83 1015.3
20260904234823 75 96 1.0 2.0 0.00 0.32 0.32 83 1015.2
20260904234326 75 97 1.0 2.0 0.00 0.32 0.32 83 1015.2
20260904233834 75 96 0.0 2.0 0.00 0.32 0.32 83 1015.1
20260904233320 75 96 0.0 2.0 0.00 0.32 0.32 83 1015.0
20260904232822 75 96 1.0 1.0 0.00 0.32 0.32 83 1014.9
20260904232326 75 96 0.0 1.0 0.00 0.32 0.32 83 1014.9
20260904231812 75 95 0.0 1.0 0.00 0.32 0.32 83 1015.0
20260904231329 75 97 0.0 1.0 0.00 0.32 0.32 82 1015.0
20260904230813 75 96 1.0 2.0 0.00 0.32 0.32 82 1015.0
20260904230315 76 96 1.0 2.0 0.00 0.32 0.32 82 1014.9
20260904225823 76 96 2.0 2.0 0.00 0.32 0.32 82 1015.1
20260904225325 75 95 1.0 2.0 0.00 0.32 0.32 82 1015.0
20260904224827 76 96 1.0 2.0 0.00 0.32 0.32 82 1015.1
20260904224337 75 96 0.0 2.0 0.00 0.32 0.32 82 1015.1
20260904223838 75 96 1.0 2.0 0.00 0.32 0.32 82 1015.1
20260904223325 75 224 1.0 3.0 0.00 0.32 0.32 82 1015.1
20260904222827 75 223 1.0 3.0 0.00 0.32 0.32 82 1015.1
20260904222330 75 211 2.0 3.0 0.00 0.32 0.32 82 1015.1
20260904221815 75 220 0.0 2.0 0.00 0.32 0.32 83 1015.0
20260904221318 74 221 0.0 3.0 0.00 0.32 0.32 83 1014.9
20260904220826 74 221 1.0 4.0 0.00 0.32 0.32 83 1015.0
20260904220328 74 217 2.0 5.0 0.00 0.32 0.32 82 1014.9
20260904215830 74 221 3.0 5.0 0.00 0.32 0.32 82 1014.9
20260904215312 74 229 2.0 4.0 0.00 0.32 0.32 82 1014.9
20260904214821 74 222 3.0 4.0 0.00 0.32 0.32 82 1014.9
20260904214323 75 212 2.0 4.0 0.00 0.32 0.32 81 1014.8
20260904213831 75 215 3.0 5.0 0.00 0.32 0.32 81 1014.8
20260904213313 75 238 3.0 5.0 0.00 0.32 0.32 80 1014.7
20260904212815 76 221 2.0 4.0 0.00 0.32 0.32 79 1014.6
20260904212317 77 211 1.0 3.0 0.00 0.32 0.32 79 1014.6
20260904211826 78 229 2.0 4.0 0.00 0.32 0.32 77 1014.6
20260904211329 79 217 2.0 4.0 0.00 0.32 0.32 76 1014.7
20260904210837 79 215 1.0 4.0 0.00 0.32 0.32 76 1014.7
20260904210319 79 245 1.0 2.0 0.00 0.32 0.32 77 1014.8
20260904205821 79 292 1.0 2.0 0.00 0.32 0.32 79 1014.8
20260904205323 78 61 1.0 2.0 0.00 0.32 0.32 79 1014.8
20260904204832 78 70 0.0 2.0 0.00 0.32 0.32 80 1015.0
20260904204314 77 71 1.0 3.0 0.00 0.32 0.32 80 1015.1
20260904203815 77 212 2.0 4.0 0.00 0.32 0.32 80 1015.1
20260904203324 76 216 1.0 4.0 0.00 0.32 0.32 81 1015.3
20260904202825 76 204 1.0 4.0 0.00 0.32 0.32 81 1015.4
20260904202328 75 221 2.0 5.0 0.00 0.32 0.32 80 1015.3
20260904201836 75 212 3.0 5.0 0.00 0.32 0.32 80 1015.3
20260904201339 76 210 2.0 3.0 0.00 0.32 0.32 80 1015.3
20260904200826 76 205 1.0 3.0 0.00 0.32 0.32 81 1015.4
20260904200348 76 205 2.0 4.0 0.00 0.32 0.32 81 1015.3
20260904195836 75 219 1.0 4.0 0.00 0.32 0.32 81 1015.6
20260904195317 75 230 1.0 3.0 0.00 0.32 0.32 81 1015.7
20260904194818 75 251 1.0 4.0 0.00 0.32 0.32 82 1015.8
20260904194348 75 286 2.0 4.0 0.00 0.32 0.32 81 1015.9
20260904193834 75 196 1.0 3.0 0.00 0.32 0.32 82 1015.8
20260904193317 75 211 2.0 4.0 0.00 0.32 0.32 82 1015.9
20260904192838 75 188 1.0 4.0 0.00 0.32 0.32 83 1015.9
20260904192326 74 213 2.0 4.0 0.00 0.32 0.32 83 1016.0
20260904191828 74 255 1.0 3.0 0.00 0.32 0.32 84 1016.0
20260904191337 74 216 1.0 3.0 0.00 0.32 0.32 85 1016.1
20260904190819 74 360 0.0 4.0 0.00 0.32 0.32 85 1016.1
20260904190321 74 273 1.0 4.0 0.00 0.32 0.32 85 1016.1
20260904185823 74 211 0.0 2.0 0.00 0.32 0.32 85 1016.0
20260904185332 73 296 1.0 4.0 0.00 0.32 0.32 85 1015.9
20260904184813 73 205 1.0 4.0 0.00 0.32 0.32 85 1015.9
20260904184317 73 229 2.0 3.0 0.00 0.32 0.32 85 1015.8
20260904183825 74 251 0.0 3.0 0.00 0.32 0.32 86 1015.6
20260904183327 74 252 1.0 3.0 0.00 0.32 0.32 86 1015.7
20260904182828 73 297 0.0 135.0 0.00 0.32 0.32 86 1015.8
20260904182334 73 319 1.0 135.0 0.00 0.32 0.32 86 1015.6
20260904181816 73 59 135.0 136.0 0.00 0.32 0.32 86 1015.6
20260904181319 73 57 135.0 136.0 0.00 0.32 0.32 86 1015.5
20260904180826 73 360 136.0 137.0 0.00 0.32 0.32 87 1015.6
20260904180356 73 317 136.0 137.0 0.00 0.32 0.32 86 1015.6
20260904175817 73 24 136.0 137.0 0.00 0.32 0.32 86 1015.7
20260904175320 73 360 137.0 139.0 0.00 0.32 0.32 86 1015.8
20260904174828 72 234 134.0 136.0 0.00 0.32 0.32 86 1015.8
20260904174353 72 289 137.0 139.0 0.00 0.32 0.32 86 1015.8
20260904173812 72 360 137.0 139.0 0.00 0.32 0.32 86 1015.8
20260904173321 72 360 137.0 139.0 0.00 0.32 0.32 86 1015.9
20260904172824 72 360 137.0 138.0 0.00 0.32 0.32 87 1015.9
20260904172334 72 225 134.0 136.0 0.00 0.32 0.32 86 1015.9
20260904171815 72 22 136.0 137.0 0.00 0.32 0.32 86 1015.8
20260904171346 72 360 135.0 136.0 0.00 0.32 0.32 86 1015.7
20260904170826 72 225 135.0 136.0 0.00 0.32 0.32 86 1015.9
20260904170328 72 360 138.0 154.0 0.00 0.32 0.32 86 1016.0
20260904165837 72 69 136.0 137.0 0.00 0.32 0.32 87 1016.0
20260904165324 71 69 136.0 137.0 0.00 0.32 0.32 86 1016.2
20260904164826 71 69 136.0 136.0 0.01 0.32 0.32 87 1016.3
20260904164328 71 70 136.0 137.0 0.01 0.32 0.32 87 1016.2
20260904163836 71 67 136.0 137.0 0.01 0.32 0.32 86 1016.3
20260904163317 71 69 136.0 137.0 0.01 0.32 0.32 86 1016.3
20260904162826 71 71 136.0 136.0 0.01 0.32 0.32 86 1016.1
20260904162349 71 71 136.0 136.0 0.01 0.32 0.32 86 1016.0
20260904161836 71 67 136.0 136.0 0.01 0.32 0.32 86 1015.9
20260904161319 71 65 136.0 136.0 0.01 0.32 0.32 86 1015.8
20260904160820 71 68 136.0 137.0 0.01 0.32 0.32 86 1016.0
20260904160329 71 69 136.0 137.0 0.01 0.32 0.32 86 1015.9
20260904155830 71 67 136.0 137.0 0.01 0.32 0.32 86 1015.8
20260904155312 71 68 136.0 137.0 0.01 0.32 0.32 86 1015.7
20260904154815 71 65 136.0 137.0 0.00 0.31 0.31 86 1015.8
20260904154325 71 75 136.0 137.0 0.00 0.31 0.31 86 1015.9
20260904153854 71 67 136.0 136.0 0.00 0.31 0.31 86 1016.0
20260904153315 71 12 135.0 136.0 0.00 0.31 0.31 86 1015.6
20260904152815 71 360 137.0 136.0 0.00 0.31 0.31 86 1015.4
20260904152317 71 161 137.0 136.0 0.00 0.31 0.31 86 1014.7
20260904151826 71 211 134.0 137.0 0.00 0.31 0.31 86 1015.1
20260904151328 71 48 135.0 137.0 0.00 0.31 0.31 86 1015.5
20260904150832 71 360 135.0 144.0 0.00 0.31 0.31 86 1015.5
20260904150314 71 166 132.0 155.0 0.00 0.31 0.31 86 1015.8
20260904145816 70 360 131.0 144.0 0.00 0.31 0.31 86 1015.5
20260904145325 70 144 137.0 139.0 0.00 0.31 0.31 86 1016.0
20260904144826 70 212 134.0 138.0 0.00 0.31 0.31 86 1015.9
20260904144356 70 131 134.0 151.0 0.00 0.31 0.31 86 1015.8
20260904143816 70 195 136.0 136.0 0.00 0.31 0.31 86 1015.9
20260904143317 70 127 140.0 136.0 0.00 0.31 0.31 86 1015.8
20260904142826 70 35 135.0 136.0 0.00 0.31 0.31 86 1016.0
20260904142327 70 39 136.0 136.0 0.00 0.31 0.31 86 1016.1
20260904141829 70 297 135.0 138.0 0.00 0.31 0.31 86 1015.8
20260904141339 70 334 135.0 136.0 0.00 0.31 0.31 86 1015.0
20260904140820 70 126 137.0 138.0 0.00 0.31 0.31 86 1014.6
20260904140321 70 360 135.0 136.0 0.00 0.31 0.31 86 1015.2
20260904135851 70 190 133.0 136.0 0.00 0.31 0.31 86 1015.5
20260904135312 71 101 138.0 139.0 0.01 0.31 0.31 86 1015.8
20260904134813 71 215 136.0 136.0 0.02 0.31 0.31 86 1016.3
20260904134322 71 360 144.0 143.0 0.02 0.31 0.31 86 1016.4
20260904133823 71 80 137.0 136.0 0.03 0.31 0.31 86 1016.0
20260904133332 71 44 135.0 136.0 0.04 0.31 0.31 86 1016.4
20260904132815 71 42 135.0 136.0 0.04 0.31 0.31 86 1016.5
20260904132336 71 220 133.0 136.0 0.04 0.31 0.31 86 1016.8
20260904131824 71 221 133.0 136.0 0.04 0.31 0.31 86 1016.9
20260904131327 71 225 133.0 136.0 0.05 0.31 0.31 86 1016.9
20260904130836 72 222 134.0 136.0 0.06 0.31 0.31 85 1016.9
20260904130314 72 349 136.0 136.0 0.06 0.31 0.31 86 1016.9
20260904125814 72 348 136.0 134.0 0.06 0.30 0.30 86 1016.8
20260904125344 72 360 136.0 136.0 0.06 0.30 0.30 86 1016.9
20260904124825 72 360 133.0 139.0 0.06 0.29 0.29 86 1017.0
20260904124334 72 284 137.0 139.0 0.08 0.29 0.29 86 1016.7
20260904123814 72 291 136.0 138.0 0.09 0.28 0.28 86 1016.7
20260904123315 72 45 135.0 136.0 0.09 0.27 0.27 86 1016.6
20260904122816 72 46 135.0 136.0 0.10 0.27 0.27 86 1017.0
20260904122324 72 48 135.0 136.0 0.10 0.27 0.27 86 1017.3
20260904121825 72 47 135.0 136.0 0.10 0.27 0.27 86 1017.3
20260904121335 72 46 135.0 136.0 0.10 0.26 0.26 86 1017.2
20260904120813 72 45 135.0 136.0 0.10 0.25 0.25 86 1017.3
20260904120315 72 45 135.0 136.0 0.10 0.25 0.25 86 1017.1
20260904115823 72 46 135.0 136.0 0.10 0.24 0.24 86 1017.2
20260904115325 72 44 135.0 136.0 0.11 0.24 0.24 86 1017.3
20260904114826 72 46 135.0 136.0 0.10 0.23 0.23 86 1017.3
20260904114336 72 44 135.0 136.0 0.10 0.21 0.21 86 1017.1
20260904113817 72 45 135.0 137.0 0.08 0.19 0.19 86 1016.7
20260904113318 72 30 136.0 137.0 0.08 0.18 0.18 86 1016.8
20260904112827 72 29 136.0 137.0 0.08 0.17 0.17 86 1016.9
20260904112329 72 355 136.0 137.0 0.08 0.17 0.17 86 1016.5
20260904111830 73 301 136.0 137.0 0.08 0.17 0.17 86 1016.3
20260904111313 73 360 135.0 137.0 0.08 0.16 0.16 86 1016.1
20260904110820 73 65 136.0 137.0 0.09 0.15 0.15 86 1016.3
20260904110322 73 74 136.0 137.0 0.10 0.15 0.15 86 1016.3
20260904105831 73 78 136.0 137.0 0.10 0.14 0.14 86 1016.4
20260904105312 73 10 135.0 137.0 0.09 0.13 0.13 86 1016.7
20260904104835 73 9 135.0 136.0 0.09 0.13 0.13 86 1016.6
20260904104323 73 340 135.0 139.0 0.07 0.11 0.11 86 1016.7
20260904103824 73 106 138.0 140.0 0.07 0.11 0.11 86 1016.7
20260904103333 73 360 133.0 139.0 0.06 0.10 0.10 86 1016.5
20260904102837 73 360 133.0 141.0 0.06 0.09 0.09 86 1016.2
20260904102345 73 360 136.0 141.0 0.06 0.09 0.09 86 1016.0